Time,TemperatureF,DewpointF,PressureIn,WindDirection,WindDirectionDegrees,WindSpeedMPH,WindSpeedGustMPH,Humidity,HourlyPrecipIn,Conditions,Clouds,dailyrainin,SolarRadiationWatts/m^2,SoftwareType,DateUTC
2013-08-31 00:00:00,74.4,70.9,29.80,NNW,347,0.0,0.0,89,0.00,,---,0.00,0.00,VWS V14.00,2013-08-31 05:00:00,
2013-08-31 00:05:00,74.3,70.8,29.80,NNW,347,0.0,0.0,89,0.00,,---,0.00,0.00,VWS V14.00,2013-08-31 05:05:00,
2013-08-31 00:10:00,74.2,70.8,29.80,NNW,347,0.0,0.0,89,0.00,,---,0.00,0.00,VWS V14.00,2013-08-31 05:10:00,
2013-08-31 00:15:00,74.2,71.1,29.79,NNW,347,0.0,0.0,90,0.00,,---,0.00,0.00,VWS V14.00,2013-08-31 05:15:00,
2013-08-31 00:20:00,74.0,70.9,29.79,NNW,347,0.0,0.0,90,0.00,,---,0.00,0.00,VWS V14.00,2013-08-31 05:20:00,
2013-08-31 00:25:00,74.0,70.9,29.79,NNW,347,0.0,0.0,90,0.00,,---,0.00,0.00,VWS V14.00,2013-08-31 05:25:00,
2013-08-31 00:30:00,73.9,70.8,29.79,NNW,347,0.0,0.0,90,0.00,,---,0.00,0.00,VWS V14.00,2013-08-31 05:30:00,
2013-08-31 00:36:00,73.8,70.7,29.78,NNW,347,0.0,0.0,90,0.00,,---,0.00,0.00,VWS V14.00,2013-08-31 05:36:00,
2013-08-31 00:41:00,73.7,70.9,29.78,NNW,347,0.0,0.0,91,0.00,,---,0.00,0.00,VWS V14.00,2013-08-31 05:41:00,
2013-08-31 00:46:00,73.7,70.9,29.79,NNW,347,0.0,0.0,91,0.00,,---,0.00,0.00,VWS V14.00,2013-08-31 05:46:00,
2013-08-31 00:51:00,73.6,70.8,29.78,NNW,347,0.0,0.0,91,0.00,,---,0.00,0.00,VWS V14.00,2013-08-31 05:51:00,
2013-08-31 00:56:00,73.5,70.7,29.78,NNW,347,0.0,0.0,91,0.00,,---,0.00,0.00,VWS V14.00,2013-08-31 05:56:00,
2013-08-31 01:01:00,73.5,70.7,29.79,NNW,347,0.0,0.0,91,0.00,,---,0.00,0.00,VWS V14.00,2013-08-31 06:01:00,
2013-08-31 01:06:00,73.4,70.6,29.79,NNW,347,0.0,0.0,91,0.00,,---,0.00,0.00,VWS V14.00,2013-08-31 06:06:00,
2013-08-31 01:12:00,73.3,70.5,29.79,NNW,347,0.0,0.0,91,0.00,,---,0.00,0.00,VWS V14.00,2013-08-31 06:12:00,
2013-08-31 01:17:00,73.2,70.4,29.79,NNW,347,0.0,0.0,91,0.00,,---,0.00,0.00,VWS V14.00,2013-08-31 06:17:00,
2013-08-31 01:22:00,73.1,70.3,29.78,NNW,347,0.0,0.0,91,0.00,,---,0.00,0.00,VWS V14.00,2013-08-31 06:22:00,
2013-08-31 01:27:00,73.1,70.3,29.78,NNW,347,0.0,0.0,91,0.00,,---,0.00,0.00,VWS V14.00,2013-08-31 06:27:00,
2013-08-31 01:32:00,73.0,70.2,29.78,NNW,347,0.0,0.0,91,0.00,,---,0.00,0.00,VWS V14.00,2013-08-31 06:32:00,
2013-08-31 01:37:00,73.0,70.2,29.78,NNW,347,0.0,0.0,91,0.00,,---,0.00,0.00,VWS V14.00,2013-08-31 06:37:00,
2013-08-31 01:42:00,72.9,70.4,29.79,NNW,347,0.0,0.0,92,0.00,,---,0.00,0.00,VWS V14.00,2013-08-31 06:42:00,
2013-08-31 01:47:00,72.8,70.3,29.84,NNW,347,0.0,0.0,92,0.00,,---,0.00,0.00,VWS V14.00,2013-08-31 06:47:00,
2013-08-31 01:52:00,72.7,70.2,29.82,NNW,347,0.0,0.0,92,0.00,,---,0.00,0.00,VWS V14.00,2013-08-31 06:52:00,
2013-08-31 01:57:00,72.6,70.2,29.81,NNW,347,0.0,0.0,92,0.00,,---,0.00,0.00,VWS V14.00,2013-08-31 06:57:00,
2013-08-31 02:03:00,72.5,70.1,29.84,NNW,347,0.0,0.0,92,0.00,,---,0.00,0.00,VWS V14.00,2013-08-31 07:03:00,
2013-08-31 02:08:00,72.5,70.1,29.79,NNW,347,0.0,0.0,92,0.00,,---,0.00,0.00,VWS V14.00,2013-08-31 07:08:00,
2013-08-31 02:13:00,72.4,69.9,29.83,NNW,347,0.0,0.0,92,0.00,,---,0.00,0.00,VWS V14.00,2013-08-31 07:13:00,
2013-08-31 02:18:00,72.4,69.9,29.81,NNW,347,0.0,0.0,92,0.00,,---,0.00,0.00,VWS V14.00,2013-08-31 07:18:00,
2013-08-31 02:23:00,72.3,70.2,29.82,NNW,347,0.0,0.0,93,0.00,,---,0.00,0.00,VWS V14.00,2013-08-31 07:23:00,
2013-08-31 02:28:00,72.3,70.2,29.81,NNW,347,0.0,0.0,93,0.00,,---,0.00,0.00,VWS V14.00,2013-08-31 07:28:00,
2013-08-31 02:33:00,72.2,70.1,29.81,NNW,347,0.0,0.0,93,0.00,,---,0.00,0.00,VWS V14.00,2013-08-31 07:33:00,
2013-08-31 02:38:00,72.1,70.0,29.81,NNW,347,0.0,0.0,93,0.00,,---,0.00,0.00,VWS V14.00,2013-08-31 07:38:00,
2013-08-31 02:43:00,72.1,70.0,29.81,NNW,347,0.0,0.0,93,0.00,,---,0.00,0.00,VWS V14.00,2013-08-31 07:43:00,
2013-08-31 02:48:00,72.0,69.6,29.81,NNW,347,0.0,0.0,92,0.00,,---,0.00,0.00,VWS V14.00,2013-08-31 07:48:00,
2013-08-31 02:54:00,71.9,69.8,29.80,NNW,347,0.0,0.0,93,0.00,,---,0.00,0.00,VWS V14.00,2013-08-31 07:54:00,
2013-08-31 02:59:00,71.9,69.8,29.80,NNW,347,0.0,0.0,93,0.00,,---,0.00,0.00,VWS V14.00,2013-08-31 07:59:00,
2013-08-31 03:04:00,71.8,69.7,29.80,NNW,347,0.0,0.0,93,0.00,,---,0.00,0.00,VWS V14.00,2013-08-31 08:04:00,
2013-08-31 03:09:00,71.8,69.7,29.80,NNW,347,0.0,0.0,93,0.00,,---,0.00,0.00,VWS V14.00,2013-08-31 08:09:00,
2013-08-31 03:14:00,71.7,69.6,29.79,NNW,347,0.0,0.0,93,0.00,,---,0.00,0.00,VWS V14.00,2013-08-31 08:14:00,
2013-08-31 03:19:00,71.7,69.6,29.79,NNW,347,0.0,0.0,93,0.00,,---,0.00,0.00,VWS V14.00,2013-08-31 08:19:00,
2013-08-31 03:24:00,71.7,69.6,29.80,NNW,347,0.0,0.0,93,0.00,,---,0.00,0.00,VWS V14.00,2013-08-31 08:24:00,
2013-08-31 03:29:00,71.6,69.5,29.80,NNW,347,0.0,0.0,93,0.00,,---,0.00,0.00,VWS V14.00,2013-08-31 08:29:00,
2013-08-31 03:34:00,71.6,69.5,29.80,NNW,347,0.0,0.0,93,0.00,,---,0.00,0.00,VWS V14.00,2013-08-31 08:34:00,
2013-08-31 03:40:00,71.5,69.4,29.80,NNW,347,0.0,0.0,93,0.00,,---,0.00,0.00,VWS V14.00,2013-08-31 08:40:00,
2013-08-31 03:45:00,71.5,69.4,29.79,NNW,347,0.0,0.0,93,0.00,,---,0.00,0.00,VWS V14.00,2013-08-31 08:45:00,
2013-08-31 03:50:00,71.5,69.4,29.78,NNW,347,0.0,0.0,93,0.00,,---,0.00,0.00,VWS V14.00,2013-08-31 08:50:00,
2013-08-31 03:55:00,71.4,69.3,29.78,NNW,347,0.0,0.0,93,0.00,,---,0.00,0.00,VWS V14.00,2013-08-31 08:55:00,
2013-08-31 04:00:00,71.4,69.3,29.78,NNW,347,0.0,0.0,93,0.00,,---,0.00,0.00,VWS V14.00,2013-08-31 09:00:00,
2013-08-31 04:05:00,71.3,69.2,29.78,NNW,347,0.0,0.0,93,0.00,,---,0.00,0.00,VWS V14.00,2013-08-31 09:05:00,
2013-08-31 04:10:00,71.3,69.2,29.78,NNW,347,0.0,0.0,93,0.00,,---,0.00,0.00,VWS V14.00,2013-08-31 09:10:00,
2013-08-31 04:15:00,71.2,69.1,29.78,NNW,347,0.0,0.0,93,0.00,,---,0.00,0.00,VWS V14.00,2013-08-31 09:15:00,
2013-08-31 04:20:00,71.2,69.4,29.78,NNW,347,0.0,0.0,94,0.00,,---,0.00,0.00,VWS V14.00,2013-08-31 09:20:00,
2013-08-31 04:25:00,71.2,69.4,29.78,NNW,347,0.0,0.0,94,0.00,,---,0.00,0.00,VWS V14.00,2013-08-31 09:25:00,
2013-08-31 04:30:00,71.1,69.3,29.78,NNW,347,0.0,0.0,94,0.00,,---,0.00,0.00,VWS V14.00,2013-08-31 09:30:00,
2013-08-31 04:35:00,71.1,69.3,29.78,NNW,347,0.0,0.0,94,0.00,,---,0.00,0.00,VWS V14.00,2013-08-31 09:35:00,
2013-08-31 04:40:00,71.0,69.2,29.77,NNW,347,0.0,0.0,94,0.00,,---,0.00,0.00,VWS V14.00,2013-08-31 09:40:00,
2013-08-31 04:45:00,71.0,69.2,29.77,NNW,347,0.0,0.0,94,0.00,,---,0.00,0.00,VWS V14.00,2013-08-31 09:45:00,
2013-08-31 04:50:00,70.9,69.1,29.77,NNW,347,0.0,1.0,94,0.00,,---,0.00,0.00,VWS V14.00,2013-08-31 09:50:00,
2013-08-31 04:55:00,70.9,69.1,29.77,NNW,347,0.0,0.0,94,0.00,,---,0.00,0.00,VWS V14.00,2013-08-31 09:55:00,
2013-08-31 05:00:00,70.8,69.0,29.77,NNW,347,0.0,0.0,94,0.00,,---,0.00,0.00,VWS V14.00,2013-08-31 10:00:00,
2013-08-31 05:05:00,70.8,69.0,29.77,NNW,347,0.0,0.0,94,0.00,,---,0.00,0.00,VWS V14.00,2013-08-31 10:05:00,
2013-08-31 05:10:00,70.7,68.9,29.78,NNW,347,0.0,0.0,94,0.00,,---,0.00,0.00,VWS V14.00,2013-08-31 10:10:00,
2013-08-31 05:15:00,70.7,68.9,29.78,NNW,347,0.0,0.0,94,0.00,,---,0.00,0.00,VWS V14.00,2013-08-31 10:15:00,
2013-08-31 05:20:00,70.6,68.8,29.78,NNW,347,0.0,0.0,94,0.00,,---,0.00,0.00,VWS V14.00,2013-08-31 10:20:00,
2013-08-31 05:25:00,70.5,68.7,29.78,NNW,347,0.0,0.0,94,0.00,,---,0.00,0.00,VWS V14.00,2013-08-31 10:25:00,
2013-08-31 05:30:00,70.5,68.7,29.78,NNW,347,0.0,0.0,94,0.00,,---,0.00,0.00,VWS V14.00,2013-08-31 10:30:00,
2013-08-31 05:35:00,70.5,68.7,29.78,NNW,347,0.0,0.0,94,0.00,,---,0.00,0.00,VWS V14.00,2013-08-31 10:35:00,
2013-08-31 05:40:00,70.5,68.7,29.78,NNW,347,0.0,0.0,94,0.00,,---,0.00,0.00,VWS V14.00,2013-08-31 10:40:00,
2013-08-31 05:45:00,70.4,68.6,29.77,NNW,347,0.0,0.0,94,0.00,,---,0.00,0.00,VWS V14.00,2013-08-31 10:45:00,
2013-08-31 05:50:00,70.4,68.9,29.78,NNW,347,0.0,0.0,95,0.00,,---,0.00,0.00,VWS V14.00,2013-08-31 10:50:00,
2013-08-31 05:55:00,70.4,68.9,29.78,NNW,347,0.0,0.0,95,0.00,,---,0.00,0.00,VWS V14.00,2013-08-31 10:55:00,
2013-08-31 06:00:00,70.4,68.9,29.78,NNW,347,0.0,0.0,95,0.00,,---,0.00,0.00,VWS V14.00,2013-08-31 11:00:00,
2013-08-31 06:05:00,70.4,68.9,29.78,NNW,347,0.0,0.0,95,0.00,,---,0.00,0.00,VWS V14.00,2013-08-31 11:05:00,
2013-08-31 06:10:00,70.4,68.9,29.78,NNW,347,0.0,0.0,95,0.00,,---,0.00,0.00,VWS V14.00,2013-08-31 11:10:00,
2013-08-31 06:15:00,70.4,68.9,29.78,NNW,347,0.0,0.0,95,0.00,,---,0.00,0.00,VWS V14.00,2013-08-31 11:15:00,
2013-08-31 06:20:00,70.4,68.9,29.79,NNW,347,0.0,0.0,95,0.00,,---,0.00,0.00,VWS V14.00,2013-08-31 11:20:00,
2013-08-31 06:25:00,70.5,69.0,29.79,NNW,347,0.0,0.0,95,0.00,,---,0.00,0.00,VWS V14.00,2013-08-31 11:25:00,
2013-08-31 06:30:00,70.4,68.9,29.79,NNW,347,0.0,0.0,95,0.00,,---,0.00,0.00,VWS V14.00,2013-08-31 11:30:00,
2013-08-31 06:35:00,70.3,68.8,29.79,NNW,348,0.0,0.0,95,0.00,,---,0.00,0.00,VWS V14.00,2013-08-31 11:35:00,
2013-08-31 06:40:00,70.2,68.7,29.79,NNW,347,0.0,0.0,95,0.00,,---,0.00,0.00,VWS V14.00,2013-08-31 11:40:00,
2013-08-31 06:45:00,70.1,68.6,29.79,NNW,347,0.0,0.0,95,0.00,,---,0.00,0.00,VWS V14.00,2013-08-31 11:45:00,
2013-08-31 06:50:00,70.0,68.5,29.79,NNW,347,0.0,0.0,95,0.00,,---,0.00,0.00,VWS V14.00,2013-08-31 11:50:00,
2013-08-31 06:55:00,69.9,68.4,29.79,NNW,347,0.0,0.0,95,0.00,,---,0.00,0.00,VWS V14.00,2013-08-31 11:55:00,
2013-08-31 07:00:00,69.8,68.3,29.79,NNW,347,0.0,0.0,95,0.00,,---,0.00,0.00,VWS V14.00,2013-08-31 12:00:00,
2013-08-31 07:05:00,69.7,68.2,29.79,NNW,347,0.0,0.0,95,0.00,,---,0.00,0.00,VWS V14.00,2013-08-31 12:05:00,
2013-08-31 07:10:00,69.7,68.2,29.79,NNW,347,0.0,0.0,95,0.00,,---,0.00,5.00,VWS V14.00,2013-08-31 12:10:00,
2013-08-31 07:15:00,69.7,68.2,29.79,NNW,347,0.0,0.0,95,0.00,,---,0.00,11.00,VWS V14.00,2013-08-31 12:15:00,
2013-08-31 07:20:00,69.7,68.2,29.79,NNW,347,0.0,0.0,95,0.00,,---,0.00,11.00,VWS V14.00,2013-08-31 12:20:00,
2013-08-31 07:25:00,69.7,68.2,29.79,NNW,347,0.0,0.0,95,0.00,,---,0.00,14.00,VWS V14.00,2013-08-31 12:25:00,
2013-08-31 07:30:00,69.6,68.1,29.79,NNW,347,0.0,0.0,95,0.00,,---,0.00,18.00,VWS V14.00,2013-08-31 12:30:00,
2013-08-31 07:35:00,69.6,68.1,29.80,NNW,347,0.0,0.0,95,0.00,,---,0.00,19.00,VWS V14.00,2013-08-31 12:35:00,
2013-08-31 07:40:00,69.7,68.2,29.80,NNW,347,0.0,0.0,95,0.00,,---,0.00,23.00,VWS V14.00,2013-08-31 12:40:00,
2013-08-31 07:45:00,69.8,68.3,29.80,NNW,347,0.0,0.0,95,0.00,,---,0.00,30.00,VWS V14.00,2013-08-31 12:45:00,
2013-08-31 07:50:00,69.8,68.3,29.80,NNW,347,0.0,0.0,95,0.00,,---,0.00,37.00,VWS V14.00,2013-08-31 12:50:00,
2013-08-31 07:55:00,69.9,68.4,29.80,NNW,347,0.0,0.0,95,0.00,,---,0.00,46.00,VWS V14.00,2013-08-31 12:55:00,
2013-08-31 08:00:00,70.0,68.8,29.80,NNW,347,0.0,0.0,96,0.00,,---,0.00,56.00,VWS V14.00,2013-08-31 13:00:00,
2013-08-31 08:05:00,70.2,69.0,29.81,NNW,347,0.0,0.0,96,0.00,,---,0.00,62.00,VWS V14.00,2013-08-31 13:05:00,
2013-08-31 08:10:00,70.4,69.2,29.81,NNW,347,0.0,0.0,96,0.00,,---,0.00,63.00,VWS V14.00,2013-08-31 13:10:00,
2013-08-31 08:15:00,70.6,69.4,29.81,NNW,347,0.0,0.0,96,0.00,,---,0.00,69.00,VWS V14.00,2013-08-31 13:15:00,
2013-08-31 08:20:00,70.7,69.5,29.81,NNW,347,0.0,0.0,96,0.00,,---,0.00,69.00,VWS V14.00,2013-08-31 13:20:00,
2013-08-31 08:25:00,70.8,69.6,29.81,NNW,347,0.0,0.0,96,0.00,,---,0.00,72.00,VWS V14.00,2013-08-31 13:25:00,
2013-08-31 08:30:00,70.9,69.7,29.81,NNW,347,0.0,0.0,96,0.00,,---,0.00,81.00,VWS V14.00,2013-08-31 13:30:00,
2013-08-31 08:35:00,71.1,69.9,29.82,NNW,347,0.0,1.0,96,0.00,,---,0.00,90.00,VWS V14.00,2013-08-31 13:35:00,
2013-08-31 08:40:00,71.2,70.0,29.82,NNW,347,0.0,0.0,96,0.00,,---,0.00,97.00,VWS V14.00,2013-08-31 13:40:00,
2013-08-31 08:45:00,71.4,70.2,29.82,NNW,347,0.0,0.0,96,0.00,,---,0.00,102.00,VWS V14.00,2013-08-31 13:45:00,
2013-08-31 08:50:00,71.6,70.4,29.82,NNW,347,0.0,0.0,96,0.00,,---,0.00,105.00,VWS V14.00,2013-08-31 13:50:00,
2013-08-31 08:55:00,71.8,70.6,29.82,NNW,347,0.0,0.0,96,0.00,,---,0.00,111.00,VWS V14.00,2013-08-31 13:55:00,
2013-08-31 09:00:00,72.0,70.8,29.82,NNW,347,0.0,0.0,96,0.00,,---,0.00,123.00,VWS V14.00,2013-08-31 14:00:00,
2013-08-31 09:05:00,72.0,70.8,29.82,NNW,347,0.0,0.0,96,0.00,,---,0.00,130.00,VWS V14.00,2013-08-31 14:05:00,
2013-08-31 09:10:00,72.1,70.9,29.82,NNW,347,0.0,0.0,96,0.00,,---,0.00,135.00,VWS V14.00,2013-08-31 14:10:00,
2013-08-31 09:15:00,72.1,70.9,29.82,NNW,347,0.0,0.0,96,0.00,,---,0.00,113.00,VWS V14.00,2013-08-31 14:15:00,
2013-08-31 09:20:00,72.2,71.0,29.82,NNW,347,0.0,0.0,96,0.00,,---,0.00,121.00,VWS V14.00,2013-08-31 14:20:00,
2013-08-31 09:25:00,72.3,71.1,29.82,NNW,347,0.0,0.0,96,0.00,,---,0.00,360.00,VWS V14.00,2013-08-31 14:25:00,
2013-08-31 09:30:00,72.5,71.3,29.82,NNW,347,0.0,0.0,96,0.00,,---,0.00,121.00,VWS V14.00,2013-08-31 14:30:00,
2013-08-31 09:35:00,73.1,71.9,29.81,NNW,347,0.0,0.0,96,0.00,,---,0.00,404.00,VWS V14.00,2013-08-31 14:35:00,
2013-08-31 09:40:00,74.0,72.8,29.81,NNW,347,0.0,0.0,96,0.00,,---,0.00,424.00,VWS V14.00,2013-08-31 14:40:00,
2013-08-31 09:45:00,75.0,73.2,29.81,NNW,347,0.0,0.0,94,0.00,,---,0.00,490.00,VWS V14.00,2013-08-31 14:45:00,
2013-08-31 09:50:00,76.5,73.7,29.81,NNW,347,0.0,0.0,91,0.00,,---,0.00,589.00,VWS V14.00,2013-08-31 14:50:00,
2013-08-31 09:55:00,77.3,73.5,29.80,NNW,347,0.0,0.0,88,0.00,,---,0.00,561.00,VWS V14.00,2013-08-31 14:55:00,
2013-08-31 10:00:00,77.8,73.6,29.80,NNW,347,0.0,0.0,87,0.00,,---,0.00,258.00,VWS V14.00,2013-08-31 15:00:00,
2013-08-31 10:05:00,78.3,74.1,29.80,NNW,347,0.0,0.0,87,0.00,,---,0.00,304.00,VWS V14.00,2013-08-31 15:05:00,
2013-08-31 10:10:00,79.1,74.2,29.80,NNW,347,0.0,0.0,85,0.00,,---,0.00,464.00,VWS V14.00,2013-08-31 15:10:00,
2013-08-31 10:15:00,79.7,74.4,29.80,NNW,347,0.0,0.0,84,0.00,,---,0.00,584.00,VWS V14.00,2013-08-31 15:15:00,
2013-08-31 10:20:00,80.3,74.3,29.80,NNW,347,0.0,0.0,82,0.00,,---,0.00,563.00,VWS V14.00,2013-08-31 15:20:00,
2013-08-31 10:25:00,80.7,74.7,29.80,NNW,347,0.0,0.0,82,0.00,,---,0.00,563.00,VWS V14.00,2013-08-31 15:25:00,
2013-08-31 10:30:00,80.8,74.4,29.80,NNW,347,0.0,0.0,81,0.00,,---,0.00,566.00,VWS V14.00,2013-08-31 15:30:00,
2013-08-31 10:35:00,81.0,75.0,29.80,NNW,347,0.0,0.0,82,0.00,,---,0.00,570.00,VWS V14.00,2013-08-31 15:35:00,
2013-08-31 10:40:00,81.3,74.9,29.79,NNW,347,0.0,0.0,81,0.00,,---,0.00,487.00,VWS V14.00,2013-08-31 15:40:00,
2013-08-31 10:45:00,81.8,75.0,29.79,NNW,347,0.0,0.0,80,0.00,,---,0.00,207.00,VWS V14.00,2013-08-31 15:45:00,
2013-08-31 10:50:00,82.1,75.3,29.79,NNW,347,0.0,0.0,80,0.00,,---,0.00,605.00,VWS V14.00,2013-08-31 15:50:00,
2013-08-31 10:55:00,82.4,75.6,29.79,NNW,347,0.0,0.0,80,0.00,,---,0.00,629.00,VWS V14.00,2013-08-31 15:55:00,
2013-08-31 11:00:00,82.7,75.2,29.78,NNW,347,0.0,0.0,78,0.00,,---,0.00,638.00,VWS V14.00,2013-08-31 16:00:00,
2013-08-31 11:05:00,82.9,75.3,29.78,NNW,347,0.0,0.0,78,0.00,,---,0.00,642.00,VWS V14.00,2013-08-31 16:05:00,
2013-08-31 11:10:00,82.9,74.9,29.79,NNW,347,0.0,0.0,77,0.00,,---,0.00,647.00,VWS V14.00,2013-08-31 16:10:00,
2013-08-31 11:15:00,83.2,75.6,29.79,NNW,347,0.0,0.0,78,0.00,,---,0.00,657.00,VWS V14.00,2013-08-31 16:15:00,
2013-08-31 11:20:00,83.5,75.5,29.79,NNW,347,0.0,0.0,77,0.00,,---,0.00,663.00,VWS V14.00,2013-08-31 16:20:00,
2013-08-31 11:25:00,83.4,75.4,29.79,NNW,347,0.0,0.0,77,0.00,,---,0.00,677.00,VWS V14.00,2013-08-31 16:25:00,
2013-08-31 11:30:00,83.7,75.3,29.79,NNW,347,0.0,0.0,76,0.00,,---,0.00,686.00,VWS V14.00,2013-08-31 16:30:00,
2013-08-31 11:35:00,84.0,75.2,29.79,NNW,347,0.0,0.0,75,0.00,,---,0.00,693.00,VWS V14.00,2013-08-31 16:35:00,
2013-08-31 11:40:00,84.5,75.3,29.79,NNW,347,0.0,0.0,74,0.00,,---,0.00,700.00,VWS V14.00,2013-08-31 16:40:00,
2013-08-31 11:45:00,84.7,75.5,29.79,NNW,347,0.0,0.0,74,0.00,,---,0.00,705.00,VWS V14.00,2013-08-31 16:45:00,
2013-08-31 11:50:00,84.8,75.6,29.79,NNW,347,0.0,0.0,74,0.00,,---,0.00,712.00,VWS V14.00,2013-08-31 16:50:00,
2013-08-31 11:55:00,85.5,76.7,29.79,NNW,347,0.0,0.0,75,0.00,,---,0.00,717.00,VWS V14.00,2013-08-31 16:55:00,
2013-08-31 12:00:00,86.3,77.0,29.79,NNW,347,0.0,0.0,74,0.00,,---,0.00,728.00,VWS V14.00,2013-08-31 17:00:00,
2013-08-31 12:05:00,86.1,76.4,29.78,NNW,347,0.0,0.0,73,0.00,,---,0.00,726.00,VWS V14.00,2013-08-31 17:05:00,
2013-08-31 12:10:00,86.8,77.1,29.79,NNW,347,0.0,0.0,73,0.00,,---,0.00,770.00,VWS V14.00,2013-08-31 17:10:00,
2013-08-31 12:15:00,86.8,76.7,29.78,NNW,347,0.0,0.0,72,0.00,,---,0.00,775.00,VWS V14.00,2013-08-31 17:15:00,
2013-08-31 12:20:00,86.6,76.1,29.77,NNW,347,0.0,0.0,71,0.00,,---,0.00,803.00,VWS V14.00,2013-08-31 17:20:00,
2013-08-31 12:25:00,86.4,75.9,29.77,NNW,347,0.0,0.0,71,0.00,,---,0.00,629.00,VWS V14.00,2013-08-31 17:25:00,
2013-08-31 12:30:00,86.1,76.4,29.78,NNW,347,0.0,0.0,73,0.00,,---,0.00,796.00,VWS V14.00,2013-08-31 17:30:00,
2013-08-31 12:35:00,86.4,76.3,29.77,NNW,347,0.0,0.0,72,0.00,,---,0.00,740.00,VWS V14.00,2013-08-31 17:35:00,
2013-08-31 12:40:00,87.0,76.5,29.77,NNW,347,0.0,0.0,71,0.00,,---,0.00,773.00,VWS V14.00,2013-08-31 17:40:00,
2013-08-31 12:45:00,87.5,75.6,29.77,NNW,347,0.0,0.0,68,0.00,,---,0.00,780.00,VWS V14.00,2013-08-31 17:45:00,
2013-08-31 12:50:00,87.9,75.6,29.77,NNW,347,0.0,0.0,67,0.00,,---,0.00,791.00,VWS V14.00,2013-08-31 17:50:00,
2013-08-31 12:55:00,88.2,76.3,29.77,NNW,347,0.0,0.0,68,0.00,,---,0.00,800.00,VWS V14.00,2013-08-31 17:55:00,
2013-08-31 13:00:00,88.3,76.0,29.77,NNW,347,0.0,0.0,67,0.00,,---,0.00,831.00,VWS V14.00,2013-08-31 18:00:00,
2013-08-31 13:05:00,88.2,76.3,29.77,NNW,347,0.0,0.0,68,0.00,,---,0.00,886.00,VWS V14.00,2013-08-31 18:05:00,
2013-08-31 13:10:00,88.8,76.4,29.77,NNW,347,0.0,0.0,67,0.00,,---,0.00,853.00,VWS V14.00,2013-08-31 18:10:00,
2013-08-31 13:15:00,88.3,76.4,29.76,NNW,347,0.0,0.0,68,0.00,,---,0.00,802.00,VWS V14.00,2013-08-31 18:15:00,
2013-08-31 13:20:00,88.5,77.0,29.76,NNW,347,0.0,0.0,69,0.00,,---,0.00,810.00,VWS V14.00,2013-08-31 18:20:00,
2013-08-31 13:25:00,88.9,77.0,29.76,NNW,347,0.0,0.0,68,0.00,,---,0.00,691.00,VWS V14.00,2013-08-31 18:25:00,
2013-08-31 13:30:00,89.2,77.3,29.76,NNW,347,0.0,0.0,68,0.00,,---,0.00,810.00,VWS V14.00,2013-08-31 18:30:00,
2013-08-31 13:35:00,88.2,75.9,29.76,NNW,347,0.0,0.0,67,0.00,,---,0.00,802.00,VWS V14.00,2013-08-31 18:35:00,
2013-08-31 13:40:00,88.1,76.7,29.76,NNW,347,0.0,0.0,69,0.00,,---,0.00,812.00,VWS V14.00,2013-08-31 18:40:00,
2013-08-31 13:45:00,88.4,76.5,29.75,NNW,347,0.0,0.0,68,0.00,,---,0.00,812.00,VWS V14.00,2013-08-31 18:45:00,
2013-08-31 13:50:00,89.1,77.2,29.76,NNW,347,0.0,0.0,68,0.00,,---,0.00,802.00,VWS V14.00,2013-08-31 18:50:00,
2013-08-31 13:55:00,89.1,76.7,29.76,NNW,347,0.0,0.0,67,0.00,,---,0.00,805.00,VWS V14.00,2013-08-31 18:55:00,
2013-08-31 14:00:00,89.0,75.7,29.75,NNW,347,0.0,0.0,65,0.00,,---,0.00,805.00,VWS V14.00,2013-08-31 19:00:00,
2013-08-31 14:05:00,89.0,74.8,29.75,NNW,347,0.0,0.0,63,0.00,,---,0.00,803.00,VWS V14.00,2013-08-31 19:05:00,
2013-08-31 14:11:00,89.4,76.1,29.75,NNW,347,0.0,0.0,65,0.00,,---,0.00,796.00,VWS V14.00,2013-08-31 19:11:00,
2013-08-31 14:16:00,89.8,76.0,29.75,NNW,347,0.0,0.0,64,0.00,,---,0.00,791.00,VWS V14.00,2013-08-31 19:16:00,
2013-08-31 14:21:00,89.5,76.2,29.75,NNW,347,0.0,0.0,65,0.00,,---,0.00,795.00,VWS V14.00,2013-08-31 19:21:00,
2013-08-31 14:26:00,90.3,75.5,29.75,NNW,347,0.0,0.0,62,0.00,,---,0.00,789.00,VWS V14.00,2013-08-31 19:26:00,
2013-08-31 14:31:00,90.6,74.8,29.75,NNW,347,0.0,0.0,60,0.00,,---,0.00,784.00,VWS V14.00,2013-08-31 19:31:00,
2013-08-31 14:36:00,90.7,74.4,29.75,NNW,347,0.0,0.0,59,0.00,,---,0.00,779.00,VWS V14.00,2013-08-31 19:36:00,
2013-08-31 14:41:00,90.4,74.6,29.75,NNW,347,0.0,0.0,60,0.00,,---,0.00,775.00,VWS V14.00,2013-08-31 19:41:00,
2013-08-31 14:46:00,90.5,74.2,29.75,NNW,347,0.0,0.0,59,0.00,,---,0.00,761.00,VWS V14.00,2013-08-31 19:46:00,
2013-08-31 14:51:00,90.6,74.8,29.74,NNW,347,0.0,0.0,60,0.00,,---,0.00,758.00,VWS V14.00,2013-08-31 19:51:00,
2013-08-31 14:56:00,91.0,74.7,29.74,NNW,347,0.0,0.0,59,0.00,,---,0.00,754.00,VWS V14.00,2013-08-31 19:56:00,
2013-08-31 15:01:00,91.1,73.8,29.74,NNW,347,0.0,0.0,57,0.00,,---,0.00,745.00,VWS V14.00,2013-08-31 20:01:00,
2013-08-31 15:07:00,91.3,75.5,29.74,NNW,347,0.0,0.0,60,0.00,,---,0.00,738.00,VWS V14.00,2013-08-31 20:07:00,
2013-08-31 15:12:00,91.7,74.8,29.74,NNW,347,0.0,0.0,58,0.00,,---,0.00,731.00,VWS V14.00,2013-08-31 20:12:00,
2013-08-31 15:17:00,91.3,75.5,29.73,NNW,347,0.0,0.0,60,0.00,,---,0.00,728.00,VWS V14.00,2013-08-31 20:17:00,
2013-08-31 15:22:00,91.6,75.8,29.73,NNW,347,0.0,0.0,60,0.00,,---,0.00,722.00,VWS V14.00,2013-08-31 20:22:00,
2013-08-31 15:27:00,92.0,75.6,29.73,NNW,347,0.0,0.0,59,0.00,,---,0.00,710.00,VWS V14.00,2013-08-31 20:27:00,
2013-08-31 15:32:00,91.8,74.9,29.73,NNW,347,0.0,0.0,58,0.00,,---,0.00,705.00,VWS V14.00,2013-08-31 20:32:00,
2013-08-31 15:37:00,92.0,73.5,29.73,NNW,347,0.0,0.0,55,0.00,,---,0.00,694.00,VWS V14.00,2013-08-31 20:37:00,
2013-08-31 15:42:00,91.9,72.3,29.73,NNW,347,0.0,0.0,53,0.00,,---,0.00,682.00,VWS V14.00,2013-08-31 20:42:00,
2013-08-31 15:47:00,91.7,73.8,29.73,NNW,347,0.0,0.0,56,0.00,,---,0.00,668.00,VWS V14.00,2013-08-31 20:47:00,
2013-08-31 15:52:00,92.0,75.6,29.73,NNW,347,0.0,0.0,59,0.00,,---,0.00,657.00,VWS V14.00,2013-08-31 20:52:00,
2013-08-31 15:58:00,91.4,75.6,29.73,NNW,347,0.0,0.0,60,0.00,,---,0.00,649.00,VWS V14.00,2013-08-31 20:58:00,
2013-08-31 16:03:00,91.1,75.3,29.72,NNW,347,0.0,0.0,60,0.00,,---,0.00,636.00,VWS V14.00,2013-08-31 21:03:00,
2013-08-31 16:08:00,91.0,75.2,29.72,NNW,347,0.0,0.0,60,0.00,,---,0.00,624.00,VWS V14.00,2013-08-31 21:08:00,
2013-08-31 16:13:00,91.2,74.9,29.72,NNW,347,0.0,0.0,59,0.00,,---,0.00,610.00,VWS V14.00,2013-08-31 21:13:00,
2013-08-31 16:18:00,91.0,73.1,29.72,NNW,347,0.0,0.0,56,0.00,,---,0.00,599.00,VWS V14.00,2013-08-31 21:18:00,
2013-08-31 16:23:00,90.9,73.6,29.72,NNW,347,0.0,0.0,57,0.00,,---,0.00,587.00,VWS V14.00,2013-08-31 21:23:00,
2013-08-31 16:28:00,91.5,74.1,29.72,NNW,347,0.0,0.0,57,0.00,,---,0.00,573.00,VWS V14.00,2013-08-31 21:28:00,
2013-08-31 16:33:00,91.5,75.2,29.72,NNW,347,0.0,0.0,59,0.00,,---,0.00,563.00,VWS V14.00,2013-08-31 21:33:00,
2013-08-31 16:38:00,91.2,74.9,29.72,NNW,347,0.0,0.0,59,0.00,,---,0.00,547.00,VWS V14.00,2013-08-31 21:38:00,
2013-08-31 16:44:00,91.0,74.7,29.72,NNW,347,0.0,0.0,59,0.00,,---,0.00,536.00,VWS V14.00,2013-08-31 21:44:00,
2013-08-31 16:49:00,91.0,75.2,29.72,NNW,347,0.0,0.0,60,0.00,,---,0.00,519.00,VWS V14.00,2013-08-31 21:49:00,
2013-08-31 16:54:00,90.8,75.0,29.72,NNW,347,0.0,0.0,60,0.00,,---,0.00,504.00,VWS V14.00,2013-08-31 21:54:00,
2013-08-31 16:59:00,90.6,74.8,29.72,NNW,347,0.0,0.0,60,0.00,,---,0.00,489.00,VWS V14.00,2013-08-31 21:59:00,
2013-08-31 17:04:00,90.7,74.4,29.72,NNW,347,0.0,0.0,59,0.00,,---,0.00,475.00,VWS V14.00,2013-08-31 22:04:00,
2013-08-31 17:09:00,90.8,74.5,29.72,NNW,347,0.0,0.0,59,0.00,,---,0.00,459.00,VWS V14.00,2013-08-31 22:09:00,
2013-08-31 17:15:00,90.6,75.3,29.72,NNW,347,0.0,0.0,61,0.00,,---,0.00,441.00,VWS V14.00,2013-08-31 22:15:00,
2013-08-31 17:20:00,90.8,75.5,29.71,NNW,347,0.0,0.0,61,0.00,,---,0.00,427.00,VWS V14.00,2013-08-31 22:20:00,
2013-08-31 17:25:00,91.2,74.9,29.71,NNW,347,0.0,0.0,59,0.00,,---,0.00,413.00,VWS V14.00,2013-08-31 22:25:00,
2013-08-31 17:30:00,91.3,75.0,29.71,NNW,347,0.0,0.0,59,0.00,,---,0.00,397.00,VWS V14.00,2013-08-31 22:30:00,
2013-08-31 17:35:00,91.3,75.0,29.71,NNW,347,0.0,0.0,59,0.00,,---,0.00,378.00,VWS V14.00,2013-08-31 22:35:00,
2013-08-31 17:40:00,90.8,75.0,29.71,NNW,347,0.0,0.0,60,0.00,,---,0.00,139.00,VWS V14.00,2013-08-31 22:40:00,
2013-08-31 17:45:00,90.6,75.8,29.71,NNW,347,0.0,0.0,62,0.00,,---,0.00,58.00,VWS V14.00,2013-08-31 22:45:00,
2013-08-31 17:50:00,90.7,75.9,29.71,NNW,347,0.0,0.0,62,0.00,,---,0.00,51.00,VWS V14.00,2013-08-31 22:50:00,
2013-08-31 17:55:00,90.7,76.4,29.71,NNW,347,0.0,0.0,63,0.00,,---,0.00,98.00,VWS V14.00,2013-08-31 22:55:00,
2013-08-31 18:00:00,90.6,76.3,29.71,NNW,347,0.0,0.0,63,0.00,,---,0.00,72.00,VWS V14.00,2013-08-31 23:00:00,
2013-08-31 18:05:00,90.6,76.3,29.70,NNW,347,0.0,0.0,63,0.00,,---,0.00,46.00,VWS V14.00,2013-08-31 23:05:00,
2013-08-31 18:10:00,90.4,76.1,29.70,NNW,347,0.0,0.0,63,0.00,,---,0.00,44.00,VWS V14.00,2013-08-31 23:10:00,
2013-08-31 18:15:00,90.2,76.4,29.70,NNW,347,0.0,0.0,64,0.00,,---,0.00,42.00,VWS V14.00,2013-08-31 23:15:00,
2013-08-31 18:20:00,89.9,76.6,29.70,NNW,347,0.0,0.0,65,0.00,,---,0.00,40.00,VWS V14.00,2013-08-31 23:20:00,
2013-08-31 18:25:00,89.7,76.4,29.70,NNW,347,0.0,0.0,65,0.00,,---,0.00,39.00,VWS V14.00,2013-08-31 23:25:00,
2013-08-31 18:30:00,89.5,76.2,29.70,NNW,347,0.0,0.0,65,0.00,,---,0.00,39.00,VWS V14.00,2013-08-31 23:30:00,
2013-08-31 18:35:00,89.2,76.4,29.70,NNW,347,0.0,0.0,66,0.00,,---,0.00,37.00,VWS V14.00,2013-08-31 23:35:00,
2013-08-31 18:40:00,88.9,76.5,29.70,NNW,347,0.0,0.0,67,0.00,,---,0.00,32.00,VWS V14.00,2013-08-31 23:40:00,
2013-08-31 18:45:00,88.7,76.8,29.70,NNW,347,0.0,0.0,68,0.00,,---,0.00,35.00,VWS V14.00,2013-08-31 23:45:00,
2013-08-31 18:50:00,88.5,77.0,29.70,NNW,347,0.0,0.0,69,0.00,,---,0.00,42.00,VWS V14.00,2013-08-31 23:50:00,
2013-08-31 18:55:00,88.3,76.8,29.70,NNW,347,0.0,0.0,69,0.00,,---,0.00,56.00,VWS V14.00,2013-08-31 23:55:00,
2013-08-31 19:00:00,88.1,77.1,29.70,NNW,347,0.0,0.0,70,0.00,,---,0.00,65.00,VWS V14.00,2013-09-01 00:00:00,
2013-08-31 19:05:00,87.8,77.2,29.70,NNW,347,0.0,0.0,71,0.00,,---,0.00,69.00,VWS V14.00,2013-09-01 00:05:00,
2013-08-31 19:10:00,87.6,77.0,29.70,NNW,347,0.0,0.0,71,0.00,,---,0.00,62.00,VWS V14.00,2013-09-01 00:10:00,
2013-08-31 19:15:00,87.4,77.3,29.70,NNW,347,0.0,0.0,72,0.00,,---,0.00,47.00,VWS V14.00,2013-09-01 00:15:00,
2013-08-31 19:20:00,87.3,76.8,29.70,NNW,347,0.0,0.0,71,0.00,,---,0.00,47.00,VWS V14.00,2013-09-01 00:20:00,
2013-08-31 19:25:00,87.2,76.7,29.70,NNW,347,0.0,0.0,71,0.00,,---,0.00,33.00,VWS V14.00,2013-09-01 00:25:00,
2013-08-31 19:30:00,87.2,77.1,29.70,NNW,347,0.0,0.0,72,0.00,,---,0.00,19.00,VWS V14.00,2013-09-01 00:30:00,
2013-08-31 19:35:00,87.0,76.9,29.69,NNW,347,0.0,0.0,72,0.00,,---,0.00,16.00,VWS V14.00,2013-09-01 00:35:00,
2013-08-31 19:41:00,86.8,76.7,29.69,NNW,347,0.0,0.0,72,0.00,,---,0.00,12.00,VWS V14.00,2013-09-01 00:41:00,
2013-08-31 19:46:00,86.6,76.5,29.69,NNW,347,0.0,0.0,72,0.00,,---,0.00,11.00,VWS V14.00,2013-09-01 00:46:00,
2013-08-31 19:51:00,86.3,76.2,29.69,NNW,347,0.0,0.0,72,0.00,,---,0.00,9.00,VWS V14.00,2013-09-01 00:51:00,
2013-08-31 19:56:00,86.2,76.1,29.70,NNW,347,0.0,0.0,72,0.00,,---,0.00,7.00,VWS V14.00,2013-09-01 00:56:00,
2013-08-31 20:01:00,86.0,76.3,29.70,NNW,347,0.0,0.0,73,0.00,,---,0.00,0.00,VWS V14.00,2013-09-01 01:01:00,
2013-08-31 20:06:00,85.8,76.6,29.70,NNW,347,0.0,0.0,74,0.00,,---,0.00,0.00,VWS V14.00,2013-09-01 01:06:00,
2013-08-31 20:11:00,85.6,76.0,29.70,NNW,347,0.0,0.0,73,0.00,,---,0.00,0.00,VWS V14.00,2013-09-01 01:11:00,
2013-08-31 20:16:00,85.4,75.8,29.70,NNW,347,0.0,0.0,73,0.00,,---,0.00,0.00,VWS V14.00,2013-09-01 01:16:00,
2013-08-31 20:22:00,85.1,75.9,29.71,NNW,347,0.0,0.0,74,0.00,,---,0.00,0.00,VWS V14.00,2013-09-01 01:22:00,
2013-08-31 20:27:00,84.8,76.0,29.70,NNW,347,0.0,0.0,75,0.00,,---,0.00,0.00,VWS V14.00,2013-09-01 01:27:00,
2013-08-31 20:32:00,84.5,75.7,29.70,NNW,347,0.0,0.0,75,0.00,,---,0.00,0.00,VWS V14.00,2013-09-01 01:32:00,
2013-08-31 20:37:00,84.2,75.8,29.71,NNW,347,0.0,0.0,76,0.00,,---,0.00,0.00,VWS V14.00,2013-09-01 01:37:00,
2013-08-31 20:42:00,83.9,75.5,29.71,NNW,347,0.0,0.0,76,0.00,,---,0.00,0.00,VWS V14.00,2013-09-01 01:42:00,
2013-08-31 20:47:00,83.6,75.2,29.71,NNW,347,0.0,0.0,76,0.00,,---,0.00,0.00,VWS V14.00,2013-09-01 01:47:00,
2013-08-31 20:52:00,83.3,75.3,29.71,NNW,347,0.0,0.0,77,0.00,,---,0.00,0.00,VWS V14.00,2013-09-01 01:52:00,
2013-08-31 20:57:00,83.1,75.2,29.72,NNW,347,0.0,0.0,77,0.00,,---,0.00,0.00,VWS V14.00,2013-09-01 01:57:00,
2013-08-31 21:03:00,82.9,74.9,29.72,NNW,347,0.0,0.0,77,0.00,,---,0.00,0.00,VWS V14.00,2013-09-01 02:03:00,
2013-08-31 21:08:00,82.7,74.8,29.72,NNW,347,0.0,0.0,77,0.00,,---,0.00,0.00,VWS V14.00,2013-09-01 02:08:00,
2013-08-31 21:13:00,82.5,74.9,29.72,NNW,347,0.0,0.0,78,0.00,,---,0.00,0.00,VWS V14.00,2013-09-01 02:13:00,
2013-08-31 21:18:00,82.3,74.8,29.72,NNW,347,0.0,0.0,78,0.00,,---,0.00,0.00,VWS V14.00,2013-09-01 02:18:00,
2013-08-31 21:23:00,82.1,74.6,29.72,NNW,347,0.0,0.0,78,0.00,,---,0.00,0.00,VWS V14.00,2013-09-01 02:23:00,
2013-08-31 21:28:00,82.0,74.5,29.72,NNW,347,0.0,0.0,78,0.00,,---,0.00,0.00,VWS V14.00,2013-09-01 02:28:00,
2013-08-31 21:33:00,81.8,74.3,29.73,NNW,347,0.0,0.0,78,0.00,,---,0.00,0.00,VWS V14.00,2013-09-01 02:33:00,
2013-08-31 21:38:00,81.6,74.1,29.73,NNW,347,0.0,0.0,78,0.00,,---,0.00,0.00,VWS V14.00,2013-09-01 02:38:00,
2013-08-31 21:43:00,81.5,74.0,29.73,NNW,347,0.0,0.0,78,0.00,,---,0.00,0.00,VWS V14.00,2013-09-01 02:43:00,
2013-08-31 21:48:00,81.3,73.8,29.72,NNW,347,0.0,0.0,78,0.00,,---,0.00,0.00,VWS V14.00,2013-09-01 02:48:00,
2013-08-31 21:53:00,81.1,74.0,29.73,NNW,347,0.0,0.0,79,0.00,,---,0.00,0.00,VWS V14.00,2013-09-01 02:53:00,
2013-08-31 21:58:00,81.0,73.9,29.73,NNW,347,0.0,0.0,79,0.00,,---,0.00,0.00,VWS V14.00,2013-09-01 02:58:00,
2013-08-31 22:03:00,80.9,73.8,29.72,NNW,347,0.0,0.0,79,0.00,,---,0.00,0.00,VWS V14.00,2013-09-01 03:03:00,
2013-08-31 22:08:00,80.7,73.6,29.72,NNW,347,0.0,0.0,79,0.00,,---,0.00,0.00,VWS V14.00,2013-09-01 03:08:00,
2013-08-31 22:14:00,80.5,73.4,29.72,NNW,347,0.0,0.0,79,0.00,,---,0.00,0.00,VWS V14.00,2013-09-01 03:14:00,
2013-08-31 22:19:00,80.3,72.8,29.72,NNW,347,0.0,0.0,78,0.00,,---,0.00,0.00,VWS V14.00,2013-09-01 03:19:00,
2013-08-31 22:24:00,80.1,72.6,29.72,NNW,347,0.0,0.0,78,0.00,,---,0.00,0.00,VWS V14.00,2013-09-01 03:24:00,
2013-08-31 22:29:00,79.9,72.4,29.72,NNW,347,0.0,0.0,78,0.00,,---,0.00,0.00,VWS V14.00,2013-09-01 03:29:00,
2013-08-31 22:34:00,79.7,72.6,29.72,NNW,347,0.0,0.0,79,0.00,,---,0.00,0.00,VWS V14.00,2013-09-01 03:34:00,
2013-08-31 22:39:00,79.5,72.4,29.72,NNW,347,0.0,0.0,79,0.00,,---,0.00,0.00,VWS V14.00,2013-09-01 03:39:00,
2013-08-31 22:44:00,79.4,72.3,29.72,NNW,347,0.0,0.0,79,0.00,,---,0.00,0.00,VWS V14.00,2013-09-01 03:44:00,
2013-08-31 22:50:00,79.2,72.1,29.72,NNW,347,0.0,0.0,79,0.00,,---,0.00,0.00,VWS V14.00,2013-09-01 03:50:00,
2013-08-31 22:55:00,79.1,72.0,29.72,NNW,347,0.0,0.0,79,0.00,,---,0.00,0.00,VWS V14.00,2013-09-01 03:55:00,
2013-08-31 23:00:00,78.9,71.8,29.72,NNW,347,0.0,0.0,79,0.00,,---,0.00,0.00,VWS V14.00,2013-09-01 04:00:00,
2013-08-31 23:01:00,78.9,71.8,29.72,NNW,347,0.0,0.0,79,0.00,,---,0.00,0.00,VWS V14.00,2013-09-01 04:01:00,
2013-08-31 23:02:00,78.9,71.8,29.72,NNW,347,0.0,0.0,79,0.00,,---,0.00,0.00,VWS V14.00,2013-09-01 04:02:00,
2013-08-31 23:07:00,78.7,72.0,29.72,NNW,347,0.0,0.0,80,0.00,,---,0.00,0.00,VWS V14.00,2013-09-01 04:07:00,
2013-08-31 23:13:00,78.5,72.2,29.72,NNW,347,0.0,0.0,81,0.00,,---,0.00,0.00,VWS V14.00,2013-09-01 04:13:00,
2013-08-31 23:15:00,78.5,72.2,29.72,NNW,347,0.0,0.0,81,0.00,,---,0.00,0.00,VWS V14.00,2013-09-01 04:15:00,
2013-08-31 23:20:00,78.4,72.4,29.72,NNW,347,0.0,0.0,82,0.00,,---,0.00,0.00,VWS V14.00,2013-09-01 04:20:00,
2013-08-31 23:25:00,78.2,72.3,29.71,NNW,347,0.0,0.0,82,0.00,,---,0.00,0.00,VWS V14.00,2013-09-01 04:25:00,
2013-08-31 23:30:00,77.9,72.0,29.71,NNW,347,0.0,0.0,82,0.00,,---,0.00,0.00,VWS V14.00,2013-09-01 04:30:00,
2013-08-31 23:35:00,77.7,72.1,29.71,NNW,347,0.0,0.0,83,0.00,,---,0.00,0.00,VWS V14.00,2013-09-01 04:35:00,
2013-08-31 23:40:00,77.5,71.9,29.71,NNW,347,0.0,0.0,83,0.00,,---,0.00,0.00,VWS V14.00,2013-09-01 04:40:00,
2013-08-31 23:45:00,77.3,72.1,29.71,NNW,347,0.0,0.0,84,0.00,,---,0.00,0.00,VWS V14.00,2013-09-01 04:45:00,
2013-08-31 23:50:00,77.1,71.9,29.71,NNW,347,0.0,0.0,84,0.00,,---,0.00,0.00,VWS V14.00,2013-09-01 04:50:00,
2013-08-31 23:55:00,77.1,71.9,29.71,NNW,347,0.0,0.0,84,0.00,,---,0.00,0.00,VWS V14.00,2013-09-01 04:55:00,